• In Hungary
  • List of Countries
  • For 7 days
  • Water Temperature
  • Satellite Maps
  • Weather Map
  • News
  • Weather Widgets
  • user-avatar
    Login

    Hourly Weather Pueblo Libre

    Today, 22 May, Tuesday

    Time Temperature Precipitation Wind Pressure Humidity
    00:00 +4°C° 0 mm 1 mps 492 mmHg 88%
    01:00 +3°C° 0 mm 1 mps 491 mmHg 88%
    02:00 +2°C° 0 mm 0 mps 491 mmHg 88%
    03:00 +2°C° 0 mm 0 mps 491 mmHg 88%
    04:00 +2°C° 0 mm 0 mps 491 mmHg 88%
    05:00 +3°C° 0 mm 0 mps 492 mmHg 86%
    06:00 +4°C° 0 mm 0 mps 493 mmHg 84%
    07:00 +4°C° 0 mm 0 mps 493 mmHg 82%
    08:00 +7°C° 0 mm 1 mps 495 mmHg 75%
    09:00 +9°C° 0 mm 1 mps 496 mmHg 68%
    10:00 +10°C° 0 mm 2 mps 497 mmHg 61%
    11:00 +12°C° 0 mm 2 mps 497 mmHg 58%
    12:00 +13°C° 0 mm 2 mps 497 mmHg 56%
    13:00 +12°C° 0 mm 3 mps 498 mmHg 53%
    14:00 +12°C° 0.1 mm 3 mps 497 mmHg 54%
    15:00 +12°C° 0.1 mm 3 mps 497 mmHg 56%
    16:00 +12°C° 0.1 mm 2 mps 496 mmHg 57%
    17:00 +9°C° 0.1 mm 2 mps 495 mmHg 66%
    18:00 +8°C° 0.1 mm 1 mps 494 mmHg 74%
    19:00 +6°C° 0.1 mm 1 mps 493 mmHg 83%
    20:00 +6°C° 0.1 mm 1 mps 493 mmHg 84%
    21:00 +4°C° 0.1 mm 0 mps 493 mmHg 85%
    22:00 +4°C° 0.1 mm 0 mps 493 mmHg 86%
    23:00 +4°C° 0 mm 0 mps 493 mmHg 86%

    Tomorrow, 23 May, Wednesday

    Time Temperature Precipitation Wind Pressure Humidity
    00:00 +4°C° 0 mm 0 mps 493 mmHg 86%
    01:00 +4°C° 0 mm 0 mps 493 mmHg 86%
    02:00 +4°C° 0 mm 0 mps 493 mmHg 86%
    03:00 +3°C° 0 mm 0 mps 493 mmHg 87%
    04:00 +3°C° 0 mm 0 mps 493 mmHg 87%
    05:00 +4°C° 0 mm 0 mps 493 mmHg 86%
    06:00 +4°C° 0 mm 0 mps 494 mmHg 85%
    07:00 +5°C° 0 mm 0 mps 494 mmHg 84%
    08:00 +7°C° 0 mm 1 mps 495 mmHg 77%
    09:00 +9°C° 0 mm 1 mps 496 mmHg 71%
    10:00 +9°C° 0 mm 2 mps 498 mmHg 65%
    11:00 +10°C° 0 mm 2 mps 498 mmHg 61%
    12:00 +12°C° 0 mm 2 mps 498 mmHg 57%
    13:00 +13°C° 0 mm 2 mps 498 mmHg 54%
    14:00 +13°C° 0 mm 2 mps 497 mmHg 55%
    15:00 +12°C° 0 mm 2 mps 497 mmHg 56%
    16:00 +12°C° 0 mm 2 mps 496 mmHg 57%
    17:00 +9°C° 0 mm 2 mps 495 mmHg 66%
    18:00 +8°C° 0 mm 1 mps 494 mmHg 76%
    19:00 +6°C° 0 mm 1 mps 493 mmHg 85%
    20:00 +6°C° 0 mm 1 mps 494 mmHg 86%
    21:00 +5°C° 0 mm 0 mps 494 mmHg 87%
    22:00 +4°C° 0 mm 0 mps 494 mmHg 87%
    23:00 +4°C° 0 mm 0 mps 494 mmHg 87%

    Day after tomorrow, 24 May, Thursday

    Time Temperature Precipitation Wind Pressure Humidity
    00:00 +4°C° 0 mm 0 mps 494 mmHg 87%
    01:00 +3°C° 0 mm 0 mps 493 mmHg 87%
    02:00 +3°C° 0 mm 0 mps 493 mmHg 88%
    03:00 +3°C° 0 mm 0 mps 493 mmHg 89%
    04:00 +2°C° 0 mm 0 mps 492 mmHg 89%
    05:00 +3°C° 0 mm 0 mps 493 mmHg 87%
    06:00 +3°C° 0 mm 0 mps 494 mmHg 85%
    07:00 +5°C° 0 mm 1 mps 494 mmHg 83%
    08:00 +7°C° 0 mm 1 mps 496 mmHg 73%
    09:00 +9°C° 0 mm 1 mps 497 mmHg 63%
    10:00 +10°C° 0 mm 2 mps 499 mmHg 53%
    11:00 +12°C° 0 mm 2 mps 499 mmHg 50%
    12:00 +13°C° 0 mm 2 mps 499 mmHg 47%
    13:00 +13°C° 0 mm 3 mps 499 mmHg 44%
    14:00 +13°C° 0 mm 3 mps 498 mmHg 46%
    15:00 +12°C° 0 mm 3 mps 498 mmHg 48%
    16:00 +12°C° 0 mm 3 mps 497 mmHg 51%
    17:00 +9°C° 0 mm 2 mps 496 mmHg 62%
    18:00 +8°C° 0 mm 1 mps 494 mmHg 73%
    19:00 +5°C° 0 mm 1 mps 493 mmHg 84%
    20:00 +5°C° 0 mm 1 mps 493 mmHg 85%
    21:00 +4°C° 0 mm 0 mps 494 mmHg 86%
    22:00 +4°C° 0 mm 0 mps 494 mmHg 87%
    23:00 +4°C° 0 mm 0 mps 494 mmHg 87%

    25 May, Friday

    Time Temperature Precipitation Wind Pressure Humidity
    00:00 +3°C° 0 mm 0 mps 494 mmHg 87%
    01:00 +3°C° 0 mm 0 mps 493 mmHg 87%
    02:00 +3°C° 0 mm 0 mps 493 mmHg 87%
    03:00 +3°C° 0 mm 0 mps 493 mmHg 87%
    04:00 +3°C° 0 mm 0 mps 492 mmHg 87%
    05:00 +3°C° 0 mm 0 mps 493 mmHg 85%
    06:00 +4°C° 0 mm 0 mps 494 mmHg 84%
    07:00 +4°C° 0 mm 0 mps 494 mmHg 82%
    08:00 +7°C° 0 mm 1 mps 496 mmHg 73%
    09:00 +9°C° 0 mm 1 mps 497 mmHg 65%
    10:00 +10°C° 0 mm 2 mps 498 mmHg 57%
    11:00 +12°C° 0 mm 2 mps 498 mmHg 54%
    12:00 +13°C° 0 mm 2 mps 498 mmHg 51%
    13:00 +13°C° 0 mm 3 mps 498 mmHg 48%
    14:00 +12°C° 0.1 mm 3 mps 498 mmHg 50%
    15:00 +12°C° 0.1 mm 3 mps 497 mmHg 53%
    16:00 +11°C° 0.1 mm 3 mps 496 mmHg 55%
    17:00 +9°C° 0.1 mm 2 mps 495 mmHg 65%
    18:00 +8°C° 0.1 mm 1 mps 494 mmHg 75%
    19:00 +6°C° 0.1 mm 1 mps 493 mmHg 85%
    20:00 +6°C° 0 mm 1 mps 493 mmHg 86%
    21:00 +4°C° 0 mm 0 mps 493 mmHg 87%
    22:00 +4°C° 0 mm 0 mps 493 mmHg 87%
    23:00 +4°C° 0 mm 0 mps 493 mmHg 88%

    26 May, Saturday

    Time Temperature Precipitation Wind Pressure Humidity
    00:00 +3°C° 0 mm 0 mps 493 mmHg 88%
    01:00 +3°C° 0 mm 0 mps 492 mmHg 88%
    02:00 +3°C° 0 mm 0 mps 492 mmHg 88%
    03:00 +3°C° 0 mm 0 mps 492 mmHg 88%
    04:00 +3°C° 0 mm 0 mps 492 mmHg 87%
    05:00 +3°C° 0 mm 0 mps 492 mmHg 86%
    06:00 +4°C° 0 mm 0 mps 493 mmHg 84%
    07:00 +4°C° 0 mm 0 mps 494 mmHg 82%
    08:00 +7°C° 0 mm 1 mps 495 mmHg 74%
    09:00 +9°C° 0 mm 1 mps 496 mmHg 65%
    10:00 +10°C° 0 mm 2 mps 497 mmHg 57%
    11:00 +12°C° 0 mm 2 mps 498 mmHg 54%
    12:00 +13°C° 0 mm 2 mps 498 mmHg 50%
    13:00 +13°C° 0 mm 3 mps 498 mmHg 47%
    14:00 +13°C° 0 mm 3 mps 497 mmHg 49%
    15:00 +12°C° 0 mm 3 mps 497 mmHg 50%
    16:00 +12°C° 0 mm 3 mps 496 mmHg 52%
    17:00 +10°C° 0 mm 2 mps 495 mmHg 61%
    18:00 +7°C° 0 mm 2 mps 494 mmHg 70%
    19:00 +6°C° 0 mm 1 mps 493 mmHg 80%
    20:00 +6°C° 0 mm 1 mps 493 mmHg 80%
    21:00 +5°C° 0 mm 1 mps 493 mmHg 81%
    22:00 +4°C° 0 mm 0 mps 493 mmHg 82%
    23:00 +4°C° 0 mm 0 mps 493 mmHg 83%

    27 May, Sunday

    Time Temperature Precipitation Wind Pressure Humidity
    00:00 +4°C° 0 mm 0 mps 493 mmHg 84%
    01:00 +3°C° 0 mm 0 mps 492 mmHg 85%
    02:00 +3°C° 0.1 mm 0 mps 492 mmHg 85%
    03:00 +3°C° 0.1 mm 0 mps 492 mmHg 86%
    04:00 +3°C° 0.1 mm 0 mps 492 mmHg 86%
    05:00 +4°C° 0 mm 0 mps 493 mmHg 85%
    06:00 +5°C° 0 mm 1 mps 493 mmHg 84%
    07:00 +5°C° 0 mm 1 mps 494 mmHg 83%
    08:00 +7°C° 0 mm 1 mps 495 mmHg 74%
    09:00 +9°C° 0 mm 1 mps 496 mmHg 66%
    10:00 +10°C° 0 mm 2 mps 498 mmHg 57%
    11:00 +13°C° 0 mm 2 mps 498 mmHg 53%
    12:00 +14°C° 0 mm 2 mps 498 mmHg 49%
    13:00 +15°C° 0 mm 2 mps 498 mmHg 45%
    14:00 +14°C° 0.1 mm 2 mps 498 mmHg 47%
    15:00 +14°C° 0.1 mm 2 mps 497 mmHg 48%
    16:00 +14°C° 0.1 mm 2 mps 497 mmHg 49%
    17:00 +10°C° 0.1 mm 2 mps 496 mmHg 59%
    18:00 +9°C° 0.1 mm 1 mps 494 mmHg 68%
    19:00 +6°C° 0.1 mm 1 mps 493 mmHg 78%
    20:00 +6°C° 0.1 mm 1 mps 493 mmHg 79%
    21:00 +5°C° 0.1 mm 1 mps 493 mmHg 80%
    22:00 +4°C° 0.1 mm 0 mps 494 mmHg 81%
    23:00 +4°C° 0.1 mm 0 mps 493 mmHg 82%
    Show more